Location: Newark
(22.3000°N, 114.2000°E)
Time: 10:33:41
(UTC+00:00)

Hubble Space Telescope - Pass Details

Date: 29 October 2019
Orbit: 536 x 540 km, 28.5° (Epoch: 14 November)

Event Time Altitude Azimuth Distance (km) Brightness Sun altitude
Exits shadow 20:35:36 49° 68° (ENE) 687 1.5 -26.0°
Drops below altitude 10° 20:38:41 10° 70° (ENE) 1,778 4.3 -25.3°
Sets 20:40:56 0° 71° (ENE) 2,669 5.4 -24.7°
